This demonstration page uses our WeatherBlox Daily Observations layout. Learn more.

Left ArrowRight Arrow

Hourly Observations for January 14, 2017

Temp ( °F °C ) Dew Point ( °F °C ) Humidity (%) Winds ( mph kmh ) Pressure ( in mb ) Visibility ( mi km ) Precip ( " mm )
12:15 am 00:15 Clear 19 -7.3 8 -13.1 64 64 Calm 30.65 1038 10 16 0.00 0.00
12:35 am 00:35 Clear 18 -8 9 -12.9 68 68 Calm 30.62 1037 10 16 0.00 0.00
12:55 am 00:55 Clear 16 -8.7 9 -13 71 71 Calm 30.65 1038 10 16 0.00 0.00
1:15 am 01:15 Clear 16 -8.7 9 -12.7 73 73 Calm 30.65 1038 10 16 0.00 0.00
1:35 am 01:35 Partly Cloudy 17 -8.2 9 -12.7 70 70 Calm 30.62 1037 10 16 0.00 0.00
1:55 am 01:55 Partly Cloudy 17 -8.1 9 -12.6 70 70 W 3 6 30.62 1037 10 16 0.00 0.00
2:15 am 02:15 Partly Cloudy 18 -8 9 -12.6 70 70 Calm 30.62 1037 10 16 0.00 0.00
2:35 am 02:35 Clear 18 -7.7 10 -12.5 69 69 Calm 30.62 1037 10 16 0.00 0.00
2:55 am 02:55 Clear 19 -7.5 11 -11.7 72 72 Calm 30.62 1037 10 16 0.00 0.00
3:15 am 03:15 Clear 19 -7.5 11 -11.5 73 73 Calm 30.62 1037 10 16 0.00 0.00
3:35 am 03:35 Clear 20 -6.5 12 -11.3 69 69 W 3 6 30.62 1037 10 16 0.00 0.00
3:55 am 03:55 Clear 20 -6.5 13 -10.7 72 72 Calm 30.62 1037 10 16 0.00 0.00
4:15 am 04:15 Partly Cloudy 21 -6.2 12 -11 69 69 Calm 30.62 1037 10 16 0.00 0.00
4:35 am 04:35 Mostly Cloudy 20 -6.5 11 -11.5 68 68 Calm 30.62 1037 10 16 0.00 0.00
4:55 am 04:55 Partly Cloudy 20 -6.6 11 -11.5 68 68 W 3 6 30.62 1037 10 16 0.00 0.00
5:15 am 05:15 Cloudy 20 -6.9 11 -11.6 70 70 Calm 30.62 1037 10 16 0.00 0.00
5:35 am 05:35 Partly Cloudy 20 -6.8 11 -11.5 70 70 WNW 5 7 30.62 1037 10 16 0.00 0.00
5:55 am 05:55 Clear 19 -7.1 11 -11.5 71 71 Calm 30.62 1037 10 16 0.00 0.00
6:15 am 06:15 Clear 20 -6.8 12 -11 72 72 SW 3 6 30.62 1037 10 16 0.00 0.00
6:35 am 06:35 Clear 21 -6.1 11 -11.5 66 66 Calm 30.62 1037 10 16 0.00 0.00
6:55 am 06:55 Clear 20 -6.6 11 -11.6 68 68 Calm 30.62 1037 10 16 0.00 0.00
7:15 am 07:15 Clear 20 -6.8 11 -11.6 69 69 Calm 30.62 1037 10 16 0.00 0.00
7:35 am 07:35 Clear 18 -7.8 11 -11.9 73 73 Calm 30.62 1037 10 16 0.00 0.00
7:55 am 07:55 Clear 18 -7.7 11 -11.7 73 73 Calm 30.62 1037 10 16 0.00 0.00
8:15 am 08:15 Sunny 17 -8.1 10 -12 74 74 Calm 30.62 1037 10 16 0.00 0.00
8:35 am 08:35 Sunny 18 -7.7 11 -11.5 74 74 Calm 30.62 1037 10 16 0.00 0.00
8:55 am 08:55 Sunny 18 -7.7 12 -11.2 76 76 Calm 30.62 1037 10 16 0.00 0.00
9:15 am 09:15 Sunny 20 -6.5 13 -10.6 73 73 Calm 30.62 1037 10 16 0.00 0.00
9:35 am 09:35 Sunny 22 -5.6 13 -10.6 68 68 SW 5 7 30.65 1038 10 16 0.00 0.00
9:55 am 09:55 Partly Cloudy 24 -4.5 13 -10.6 63 63 SW 5 7 30.62 1037 10 16 0.00 0.00
10:15 am 10:15 Sunny 25 -3.8 14 -10.2 62 62 SW 5 7 30.62 1037 10 16 0.00 0.00
10:35 am 10:35 Sunny 25 -3.8 14 -10.2 62 62 SW 7 11 30.62 1037 10 16 0.00 0.00
10:55 am 10:55 Sunny 26 -3.6 13 -10.3 60 60 SW 7 11 30.62 1037 10 16 0.00 0.00
11:15 am 11:15 Sunny 27 -3 14 -10.1 58 58 SW 6 9 30.62 1037 10 16 0.00 0.00
11:35 am 11:35 Sunny 28 -2.4 14 -10 56 56 SW 5 7 30.62 1037 10 16 0.00 0.00
11:55 am 11:55 Sunny 29 -1.9 14 -10.1 54 54 Calm 30.56 1035 10 16 0.00 0.00
12:15 pm 12:15 Sunny 29 -1.5 14 -10 53 53 WSW 3 6 30.56 1035 10 16 0.00 0.00
12:35 pm 12:35 Sunny 30 -1.3 14 -9.9 52 52 WNW 3 6 30.53 1034 10 16 0.00 0.00
12:55 pm 12:55 Sunny 31 -0.5 14 -9.9 49 49 Calm 30.53 1034 10 16 0.00 0.00
1:15 pm 13:15 Sunny 32 0.1 14 -9.9 47 47 SW 3 6 30.48 1032 10 16 0.00 0.00
1:35 pm 13:35 Sunny 32 0 14 -9.9 48 48 Calm 30.48 1032 10 16 0.00 0.00
1:55 pm 13:55 Partly Cloudy 32 0.1 14 -10 47 47 SW 3 6 30.48 1032 10 16 0.00 0.00
2:15 pm 14:15 Mostly Cloudy 33 0.5 14 -9.8 46 46 Calm 30.48 1032 10 16 0.00 0.00
2:35 pm 14:35 Cloudy 33 0.6 14 -9.9 46 46 Calm 30.45 1031 10 16 0.00 0.00
2:55 pm 14:55 Mostly Cloudy 34 1 14 -9.9 44 44 Calm 30.45 1031 10 16 0.00 0.00
3:15 pm 15:15 Partly Cloudy 34 1 14 -9.9 44 44 Calm 30.45 1031 10 16 0.00 0.00
3:35 pm 15:35 Partly Cloudy 34 1 15 -9.7 45 45 Calm 30.48 1032 10 16 0.00 0.00
3:55 pm 15:55 Cloudy 34 1 15 -9.5 46 46 Calm 30.48 1032 10 16 0.00 0.00
4:15 pm 16:15 Cloudy 34 1.1 15 -9.4 46 46 ESE 3 6 30.45 1031 10 16 0.00 0.00
4:35 pm 16:35 Cloudy 34 1 15 -9.5 46 46 Calm 30.48 1032 10 16 0.00 0.00
4:55 pm 16:55 Cloudy 33 0.8 15 -9.2 48 48 Calm 30.45 1031 10 16 0.00 0.00
5:15 pm 17:15 Cloudy 33 0.7 16 -8.8 49 49 ESE 5 7 30.45 1031 10 16 0.00 0.00
5:35 pm 17:35 Cloudy 33 0.3 17 -8.5 52 52 SE 3 6 30.48 1032 10 16 0.00 0.00
5:55 pm 17:55 Cloudy 32 0.1 17 -8.5 53 53 Calm 30.48 1032 10 16 0.00 0.00
6:15 pm 18:15 Cloudy 32 0 17 -8.1 55 55 ESE 3 6 30.48 1032 10 16 0.00 0.00
6:35 pm 18:35 Cloudy 32 0 17 -8.1 55 55 Calm 30.48 1032 10 16 0.00 0.00
6:55 pm 18:55 Cloudy 32 0 17 -8.1 55 55 Calm 30.48 1032 10 16 0.00 0.00
7:15 pm 19:15 Cloudy 31 -0.5 19 -7.3 60 60 Calm 30.50 1033 10 16 0.00 0.00
7:35 pm 19:35 Cloudy 31 -0.5 19 -7.1 61 61 Calm 30.50 1033 10 16 0.00 0.00
7:55 pm 19:55 Cloudy 31 -0.5 18 -7.9 58 58 Calm 30.50 1033 10 16 0.00 0.00
8:15 pm 20:15 Cloudy 30 -1 17 -8.1 59 59 SE 5 7 30.48 1032 10 16 0.00 0.00
8:35 pm 20:35 Cloudy 31 -0.8 18 -8 59 59 SE 3 6 30.48 1032 10 16 0.00 0.00
8:55 pm 20:55 Cloudy 31 -0.8 17 -8.3 57 57 Calm 30.48 1032 10 16 0.00 0.00
9:15 pm 21:15 Cloudy 30 -1 17 -8.1 59 59 Calm 30.48 1032 10 16 0.00 0.00
9:35 pm 21:35 Cloudy 30 -1 17 -8.4 58 58 Calm 30.48 1032 10 16 0.00 0.00
9:55 pm 21:55 Cloudy 29 -1.6 19 -7.5 64 64 Calm 30.48 1032 10 16 0.00 0.00
10:15 pm 22:15 Cloudy 30 -1.2 18 -7.6 62 62 Calm 30.48 1032 10 16 0.00 0.00
10:35 pm 22:35 Cloudy 30 -1.2 18 -7.9 61 61 SSE 3 6 30.48 1032 10 16 0.00 0.00
10:55 pm 22:55 Cloudy 30 -1 18 -7.8 60 60 Calm 30.48 1032 10 16 0.00 0.00
11:15 pm 23:15 Cloudy 30 -1 18 -7.9 60 60 S 5 7 30.48 1032 10 16 0.00 0.00
11:35 pm 23:35 Cloudy 30 -1 18 -8 59 59 S 3 6 30.48 1032 10 16 0.00 0.00
11:55 pm 23:55 Cloudy 30 -0.9 18 -7.9 59 59 Calm 30.48 1032 10 16 0.00 0.00

Powered by AerisWeather